Content
SEND FEEDBACK

Daily
Averages
Monthly
Summary
United States of America

POWDER RIVER, WYOMING


Home > North America > United States > Wyoming
Elevation: 5749 feet     Latitude: 43 01N     Longitude: 107 00W

WEATHER
 
SELECT A DAY
Number of Records: 193,264;   Date Range: 1/1/95 - 7/27/14
 
SHARE

PRINT THIS DATA

[ ← Previous Day ]
WEATHER ALMANAC - JANUARY 19, 2013
[ Next Day → ]
[ °C ]   °F
Weather ElementAverageHighLow
Temperature33.8 °F44.1 °F (12:53 pm)27 °F (6:53 am)
Dewpoint8.1 °F10.9 °F (6:53 pm)5 °F (12:53 pm)
Humidity35.1 %45 % (6:53 pm)20 % (12:53 pm)
Barometer30.21 in30.27 in (8:53 am)30.12 in (1:53 am)
Wind Speed16.6 mph25.3 mph (12:53 pm)
Wind Gust34.5 mph (11:53 am)
Weather ElementAverage
Visibility10 mi
Wind DirectionSW (219.6 °)

Weather ElementTotal
Precipitation---
Heating Degree Days29.5 (Base 65)
Averaged from 23 records on January 19, 2013
WEATHER CONDITIONS BREAKOUT
WIND DIRECTION BREAKOUT
WEATHER BY HOUR - JANUARY 19, 2013
[ °C ]   °F
Local TimeTemperatureDewpointHumidityBarometerVisibilityWind DirectionWind SpeedGust SpeedPrecipitationEventsConditions
1:53 AM32.0 °F8.1 °F37 %30.12 in10.0 miSW (220°)17.3 mph24.2 mphClear
2:53 AM30.9 °F8.1 °F38 %30.14 in10.0 miSW (230°)11.5 mph18.4 mphClear
3:53 AM30.0 °F7.0 °F38 %30.16 in10.0 miSW (220°)15.0 mph21.9 mphClear
4:53 AM30.0 °F7.0 °F38 %30.18 in10.0 miSW (220°)13.8 mph19.6 mphClear
5:53 AM28.0 °F7.0 °F41 %30.21 in10.0 miSW (220°)13.8 mphClear
6:53 AM27.0 °F6.1 °F41 %30.23 in10.0 miSW (220°)16.1 mphClear
7:53 AM28.9 °F6.1 °F38 %30.25 in10.0 miSW (230°)17.3 mphClear
8:53 AM32.0 °F6.1 °F34 %30.27 in10.0 miSW (230°)16.1 mphClear
9:53 AM36.0 °F6.1 °F29 %30.27 in10.0 miSW (220°)21.9 mph27.6 mphClear
10:53 AM37.0 °F7.0 °F29 %30.26 in10.0 miSSW (210°)24.2 mph33.4 mphClear
11:53 AM41.0 °F7.0 °F25 %30.22 in10.0 miSSW (210°)24.2 mph34.5 mphClear
12:53 PM44.1 °F5.0 °F20 %30.19 in10.0 miSSW (210°)25.3 mph33.4 mphClear
1:53 PM44.1 °F7.0 °F22 %30.18 in10.0 miSSW (210°)23.0 mph32.2 mphClear
2:53 PM43.0 °F7.0 °F23 %30.18 in10.0 miSSW (210°)20.7 mph28.8 mphClear
3:53 PM39.9 °F9.0 °F28 %30.22 in10.0 miSSW (210°)15.0 mphClear
4:53 PM36.0 °F10.0 °F34 %30.24 in10.0 miSW (230°)12.7 mphClear
5:53 PM33.1 °F10.0 °F38 %30.25 in10.0 miSSW (210°)15.0 mphClear
6:53 PM30.0 °F10.9 °F45 %30.26 in10.0 miSW (220°)10.4 mphClear
7:53 PM30.0 °F10.9 °F45 %30.24 in10.0 miSSW (210°)11.5 mphClear
8:53 PM32.0 °F10.9 °F42 %30.22 in10.0 miSW (220°)11.5 mphClear
9:53 PM30.9 °F10.0 °F42 %30.19 in10.0 miSW (220°)18.4 mphClear
10:53 PM32.0 °F9.0 °F38 %30.18 in10.0 miSW (230°)12.7 mphClear
11:53 PM30.0 °F10.0 °F43 %30.17 in10.0 miWSW (240°)15.0 mphClear
Hourly data recorded from KCPR, located miles away from Powder River, Wyoming







STORIES FROM OUR PARTNERS